Regional Weather Roundup
Issued by NWS

Home | Current Version | Previous Version | Graphics & Text | Print | Product List | Glossary On
Versions: 1 2 3 4 5 6 7 8 9 10 11 12 13 14 15 16 17 18 19 20 21 22 23 24 25 26 27 28 29 30 31 32 33 34 35 36 37 38 39 40 41 42 43 44 45 46 47 48 49 50
000
ASUS43 KMKX 181859
RWRWI

WISCONSIN REGIONAL WEATHER ROUNDUP
NATIONAL WEATHER SERVICE MILWAUKEE/SULLIVAN WI
100 PM CST THU JAN 18 2018

NOTE: "FAIR" INDICATES FEW OR NO CLOUDS BELOW 12,000 FEET WITH NO
SIGNIFICANT WEATHER AND/OR OBSTRUCTIONS TO VISIBILITY.

WIZ001-002-006>008-014>016-023>028-182000-
NORTHWEST WISCONSIN

CITY           SKY/WX    TMP DP  RH WIND       PRES   REMARKS
SUPERIOR ARPT  CLOUDY    36  26  67 NW10      29.74S WCI  28
ASHLAND        NOT AVBL
HAYWARD        FAIR      37  23  56 W12G18    29.74F WCI  29
SIREN          FAIR      36  22  57 W10       29.78F WCI  28
CUMBERLAND     FAIR      32  21  64 W8        29.78F WCI  25
RICE LAKE      FAIR      33  21  61 SW5       29.81F WCI  29
CHETEK         FAIR      36  21  55 W6        29.80F WCI  31
LADYSMITH      FAIR      36  22  57 SW9       29.78F WCI  29
EAU CLAIRE     NOT AVBL
MENOMONIE      FAIR      38  22  52 SW12      29.81F WCI  30
NEW RICHMOND   FAIR      36  20  53 SW9       29.81F WCI  29
OSCEOLA        FAIR      39  24  55 SW7       29.84F WCI  34
$$

WIZ003>005-009-010-017-018-182000-
NORTH CENTRAL WISCONSIN

CITY           SKY/WX    TMP DP  RH WIND       PRES   REMARKS
MANITOWISH WTR CLOUDY    28  20  72 W12       29.71F WCI  18
ARBOR VITAE    FAIR      32  23  69 W12G18    29.71F WCI  23
WOODRUFF       FAIR      32  23  69 W12G18    29.71F WCI  23
RHINELANDER    FAIR      32  22  66 W14       29.72F WCI  22
EAGLE RIVER    CLOUDY    30  21  68 W9        29.70F WCI  21
LAND O LAKES   CLOUDY    30  22  70 W8        29.71F WCI  23
PHILLIPS       FAIR      32  21  64 SW9       29.73F WCI  24
TOMAHAWK       FAIR      32  21  63 W9        29.76F WCI  24
MEDFORD        FAIR      29  19  64 SW9       29.78F WCI  21
MERRILL        FAIR      35  21  57 W12       29.77F WCI  26
$$

WIZ029-030-035-036-043>047-182000-
CENTRAL WISCONSIN

CITY           SKY/WX    TMP DP  RH WIND       PRES   REMARKS
WAUSAU         FAIR      32  19  58 W13G21    29.77F WCI  22
MOSINEE        SUNNY     32  21  64 SW9       29.80F WCI  24
MARSHFIELD     FAIR      31  19  61 SW13      29.79F WCI  21
STEVENS POINT  FAIR      31  18  59 W8        29.83F WCI  23
WAUPACA        FAIR      36  20  51 SW10      29.84F WCI  28
WAUTOMA        FAIR      34  19  54 SW13      29.85F WCI  25
WISC RAPIDS    FAIR      34  18  52 SW10      29.84F WCI  26
CAMP DOUGLAS   MOSUNNY   34  21  60 W16       29.85F WCI  23
$$

WIZ011>013-019>022-031-037>040-048>050-182000-
NORTHEAST WISCONSIN

CITY           SKY/WX    TMP DP  RH WIND       PRES   REMARKS
ANTIGO         CLOUDY    29  19  66 W12       29.75F WCI  20
SHAWANO        FAIR      35  20  56 SW9G21    29.80F WCI  27
OCONTO         FAIR      28  18  66 SW13G21   29.81F WCI  17
STURGEON BAY   FAIR      28  19  69 SW15      29.80F WCI  16
GREEN BAY      FAIR      30  19  63 SW12G18   29.83F WCI  20
MANITOWOC      FAIR      32  20  61 SW9       29.86F WCI  24
APPLETON       MOSUNNY   28  16  59 SW16      29.83F WCI  17
CLINTONVILLE   FAIR      32  19  59 SW10      29.83F WCI  24
OSHKOSH        FAIR      29  20  69 SW12G21   29.86F WCI  19
$$

WIZ032>034-041-042-053>061-182000-
SOUTHWEST WISCONSIN

CITY           SKY/WX    TMP DP  RH WIND       PRES   REMARKS
LA CROSSE      FAIR      34  22  61 S10       29.90F WCI  26
SPARTA         FAIR      35  21  57 SW6       29.89F WCI  30
VIROQUA        FAIR      30  21  69 SW12      29.90F WCI  21
BOSCOBEL       FAIR      32  18  56 SW10G18   29.95F WCI  24
PRAIRIE DU CHI FAIR      30  17  57 SW9       29.98F WCI  22
PLATTEVILLE    FAIR      28  19  68 SW20      29.99F WCI  15
$$

WIZ056-057-062-063-064-067-068-182000-
SOUTH CENTRAL WISCONSIN

CITY           SKY/WX    TMP DP  RH WIND       PRES   REMARKS
REEDSBURG      FAIR      31  20  62 SW9       29.91F WCI  23
BARABOO/DELLS  FAIR      30  18  61 SW16      29.89F WCI  19
LONE ROCK      NOT AVBL
MINERAL POINT  FAIR      32  21  64 SW13      29.95F WCI  22
MADISON        FAIR      28  17  63 SW13G20   29.93F WCI  17
MIDDLETON      FAIR      31  18  58 SW10G20   29.94F WCI  22
WATERTOWN      NOT AVBL
MONROE         FAIR      28  18  64 SW21      29.97F WCI  15
JANESVILLE     SUNNY     28  18  64 SW13G21   29.98F WCI  18
$$

WIZ051-052-058>065-066-070>072-182000-
SOUTHEAST WISCONSIN

CITY           SKY/WX    TMP DP  RH WIND       PRES   REMARKS
MILWAUKEE      FAIR      30  17  58 SW16G28   29.94F WCI  19
WAUKESHA       SUNNY     27  16  63 SW17      29.95F WCI  14
MILWAUKEE/TIMM SUNNY     30  16  55 SW17G23   29.95F WCI  18
RACINE         FAIR      28  16  60 SW15G29   29.96F WCI  16
BURLINGTON     FAIR      28  16  60 SW18      29.97F WCI  15
KENOSHA        FAIR      29  16  58 SW21      29.96F WCI  16
FOND DU LAC    FAIR      30  17  58 SW16      29.88F WCI  19
SHEBOYGAN      FAIR      31  22  69 SW13      29.86F WCI  21
WEST BEND      FAIR      30  19  64 W12G21    29.90F WCI  21
JUNEAU         FAIR      26  17  68 S18       29.92F WCI  13
$$

LSZ147-162-182000-
LAKE SUPERIOR

STATION/POSITION TIME  TEMP    WIND        PRES    WAVE
                       AIR SEA DIR/SP/G            HT/PER
                 (UTC) (F)     (DEG/KT/KT) (MB)    (FT/S)
DEVILS ISLAND    1800   33     240/ 16/ 21 1006.9F
SAXON HARBOR     1830   35     230/ 10/ 13 1006.4F
$$

LMZ867-665-643>646-182000-
LAKE MICHIGAN

STATION/POSITION TIME  TEMP    WIND        PRES    WAVE
                       AIR SEA DIR/SP/G            HT/PER
                 (UTC) (F)     (DEG/KT/KT) (MB)    (FT/S)
NORTHPORT PIER   1840   27     190/ 10/ 23 1008.1F
KEWAUNEE LAKESHO 1830   27     230/  5/  9 1010.3F
SHEBOYGAN LAKESH 1800   27     210/ 15/ 18 1013.2F
PORT WASHINGTON  1840   32     240/ 10/ 14 1013.5F
MILWAUKEE LAKESH 1830   29     250/ 16/ 20   N/A
KENOSHA   LAKESH 1800   27     230/ 15/ 21 1015.9
$$

TC  - TEMPERATURE IN CELSIUS
VSB - VISIBILITY IN STATUTE MILES
WCI - WIND CHILL INDEX
HX  - HEAT INDEX




USA.gov is the U.S. government's official web portal to all federal, state and local government web resources and services.